Location: Newark
(49.9828°N, 3.1606°E)
Time: 17:32:54
(UTC+00:00)

ISS - Visible Passes

Search period start: 26 January 2020 00:00
Search period end: 05 February 2020 00:00
Orbit: 416 x 423 km, 51.6° (Epoch: 27 January)

Date Brightness Start Highest point End Pass type
(mag) Time Alt. Az. Time Alt. Az. Time Alt. Az.
26 Jan -3.3 17:25:57 10° SW 17:29:16 53° SSE 17:31:56 15° E visible
26 Jan -2.2 19:02:42 10° W 19:04:54 37° WNW 19:04:54 37° WNW visible
27 Jan -3.8 18:15:07 10° W 18:18:31 75° N 18:19:21 47° ENE visible
27 Jan -0.2 19:52:06 10° WNW 19:52:18 11° WNW 19:52:18 11° WNW visible
28 Jan -3.8 17:27:34 10° WSW 17:30:58 89° NNW 17:33:46 14° ENE visible
28 Jan -2.2 19:04:33 10° W 19:06:44 36° WNW 19:06:44 36° WNW visible
29 Jan -3.6 18:16:57 10° W 18:20:20 63° N 18:21:08 45° ENE visible
29 Jan -0.3 19:53:52 10° WNW 19:54:06 12° WNW 19:54:06 12° WNW visible
30 Jan -3.6 17:29:20 10° W 17:32:43 67° N 17:35:33 14° ENE visible
30 Jan -2.3 19:06:18 10° WNW 19:08:31 38° WNW 19:08:31 38° WNW visible
31 Jan -3.8 18:18:43 10° WNW 18:22:06 70° N 18:22:57 46° ENE visible
31 Jan -0.3 19:55:36 10° WNW 19:55:55 12° W 19:55:55 12° W visible
01 Feb -3.6 17:31:07 10° W 17:34:29 64° N 17:37:25 13° E visible
01 Feb -2.5 19:07:58 10° WNW 19:10:23 41° W 19:10:23 41° W visible
02 Feb -3.8 18:20:23 10° WNW 18:23:47 82° SSW 18:24:54 39° ESE visible
02 Feb -0.3 19:57:33 10° W 19:57:52 12° W 19:57:52 12° W visible
03 Feb -3.8 17:32:47 10° WNW 17:36:11 81° NNE 17:39:29 10° ESE visible
03 Feb -2.1 19:09:44 10° W 19:12:28 31° SW 19:12:28 31° SW visible
04 Feb -2.8 18:22:02 10° WNW 18:25:18 45° SSW 18:27:10 21° SE visible
